Location: Sternwarte ZA, Rosenfeld-Brittheim
(48.2889°N, 8.6789°E)
Time: 10:06:29
(UTC+02:00)

ISS - Pass Details

Date: 15 July 2018
Orbit: 402 x 408 km, 51.6° (Epoch: 19 July)

Event Time Altitude Azimuth Distance (km) Brightness Sun altitude
Exits shadow 03:22:28 - 278° (W) 1,550 -1.1 -15.9°
Reaches altitude 10° 03:22:40 10° 279° (W) 1,469 -1.2 -15.8°
Maximum altitude 03:25:51 46° 354° (N) 560 -2.8 -15.6°
Drops below altitude 10° 03:29:04 10° 70° (ENE) 1,473 -0.3 -15.3°
Sets 03:31:12 0° 76° (ENE) 2,335 0.7 -15.2°
